Location: Mexico
(19.4000°N, 99.1500°W)
Time: 06:02:23
(UTC-06:00)

ISS - Pass Details

Date: 16 March 2019
Orbit: 408 x 411 km, 51.6° (Epoch: 24 March)

Event Time Altitude Azimuth Distance (km) Brightness Sun altitude
Rises 05:32:23 0° 348° (NNW) 2,323 -0.1 -17.8°
Reaches altitude 10° 05:35:44 10° 25° (NNE) 1,463 -0.6 -17.0°
Maximum altitude 05:36:49 11° 44° (NE) 1,390 -0.4 -16.7°
Drops below altitude 10° 05:37:54 10° 64° (ENE) 1,462 0.1 -16.5°
Sets 05:41:14 0° 101° (E) 2,322 1.6 -15.7°
